Torna al catalogo

STARLINK-37519

AttivoComunicazioniSSO
NORAD 69298·PAYLOAD·🇺🇸 United States

Lanciato May 30, 2026 da Vandenberg Space Force Base

Loading…

Prossimi Passaggi (prossime 24 ore)

TLE

AggiornatoSource: CelesTrak SupGP

Epoca: Sep 15, 2026, 04:05 UTC

1 69298C 26119C   26258.17062500 -.00052428  00000+0 -16276-2 0  2581
2 69298  97.2827 282.9383 0001034  94.1184 261.4232 15.33463725    11

Traccia STARLINK-37519 in tempo reale con AllMySat

Download on the App Store